IRIDIUM 33 DEB, 33953

Orbit data source: Space-Track

IRIDIUM 33 DEB, 33953 is space debris in LEO originally from a launch on Sun, 14 Sep 1997 UTC launched from the Tyuratam Missile And Space Complex (TTMTR). The debris from Iridium 33, an American commercial communications satellite, has been tracked extensively since its accidental collision with the defunct Russian satellite Cosmos 2251 in 2009. This event, occurring at high speed in low Earth orbit (LEO), generated thousands of pieces of space debris, significantly increasing the risk of further collisions. The Iridium 33 debris cloud has impacted space traffic management and orbital debris mitigation strategies, making it a subject of ongoing study in space situational awareness.

Loading next visibility...
Identifier
33953, 1997-051BN
Orbit
LEO
Country
Flag of USUS
Related business
Manufacturer
Unknown
Mission
Spacecraft
Bus & Motor
Unknown
Mass
Unknown
Launch date (UTC)
1997-09-14 (28 years ago)
Launch vehicle
Unknown
Launch site
Tyuratam Missile And Space Complex (TTMTR)
Object type
Payload
Rocket body
Debris
Shape & HBR
Unknown shape, 0.1 m
Radar Cross Section
Small (<0.1 m²)

Expand to show TLE details & history
Last TLE update: 6 hours ago

TLE from 6 hours ago
0 IRIDIUM 33 DEB
1 33953U 97051BN  25310.82906822  .00009675  00000-0  22519-2 0  9991
2 33953  86.3849  69.3558 0016577 214.8158 300.3047 14.54697814877811
Epoch: 2025-11-06T19:53Z
TLE epoch observation values (Epoch: 2025-11-06T19:53:51.494Z)
Latitude
25.0184°
Longitude
-97.0711°
Altitude
707.613 km
Speed
7.507 km/s
True Right ascension
16h 30m 42s
True Declination
24° 53' 09"
Sunlit
Object was in daylight at epoch
Visualization orbit readout
Latitude
Unknown
Longitude
Unknown
Altitude
Unknown
Speed
Unknown
Apparent Right ascension
Unknown
Apparent Declination
Unknown
Sunlit
N/A
Visualization observer readout
Local Sidereal Time
21:59:57
Azimuth
Unknown
Elevation
Unknown
Doppler factor
Unknown
Orbital elements
Apogee altitude
719.028 km
Perigee altitude
695.537 km
Semi-major axis
7,085.419 km
Eccentricity
0.00166
Inclination
86.3849°
RAAN
69.3558°
Arg. of periapsis
214.8158°
True anomaly
300.14053°
Mean anomaly
300.3047°
Eccentric anomaly
300.22263°
Mean motion
3.63911 °/min
Orbital period
98.93 mins
BSTAR
0.0022519
Loading maneuver chart data...
Computing Atmospheric mass density...

Documentation

Showing up to 5 results
|